National Weather Service Raw Text Product

Displaying AFOS PIL: RWRIA Received: 2018-06-14 07:00 UTC


714 
ASUS43 KDMX 140706
RWRIA 

WEATHER ROUNDUP FOR IOWA
NATIONAL WEATHER SERVICE DES MOINES IA
200 AM CDT THU JUN 14 2018

NOTE: "FAIR" INDICATES FEW OR NO CLOUDS BELOW 12,000 FEET WITH NO
SIGNIFICANT WEATHER AND/OR OBSTRUCTIONS TO VISIBILITY.

* - THESE STATIONS ARE NOT NWS STATIONS...THUS NOT UNDER NWS
QUALITY CONTROL.  THEY ALSO DO NOT REPORT WEATHER SUCH 
AS PRECIPITATION OR FOG.  

IAZ001>003-012>014-020>022-031>034-043>046-140800-
   NORTHWEST IOWA
  
CITY           SKY/WX    TMP DP  RH WIND       PRES   REMARKS
CARROLL *      CLOUDY    66  59  77 CALM      29.99R                  
CHEROKEE *     MOCLDY    65  56  72 SE6       29.96F                  
DENISON *      CLOUDY    68  55  64 S8        29.98F                  
LE MARS *      CLOUDY   N/A N/A N/A SE9       29.93F                  
ORANGE CITY *  CLOUDY    66  55  68 SE6       29.94F                  
SHELDON *      CLOUDY    64  57  77 SE9       29.94F                  
SIOUX CITY     CLOUDY    67  57  70 SE7       29.93S                  
SPENCER        CLOUDY    64  56  75 E8        29.98F                  
STORM LAKE *   MOCLDY    64  55  72 SE7       29.98F                  
$$
 
IAZ055>058-069>071-079>083-090>094-140800-
   SOUTHWEST IOWA
  
CITY           SKY/WX    TMP DP  RH WIND       PRES   REMARKS
ATLANTIC *     CLOUDY    70  55  60 S3        29.96F                  
AUDUBON *      PTCLDY    66  57  72 CALM      29.99S                  
CLARINDA *     CLOUDY    70  55  60 S8        29.98F                  
COUNCIL BLFS * PTCLDY    70  61  73 SE8G17    29.94F                  
CRESTON *      CLOUDY    66  59  77 SE7       30.01S                  
HARLAN  *      PTCLDY    68  55  64 SE7       30.00R                  
LAMONI         PTCLDY    66  57  72 SE6       30.01R                  
RED OAK *      CLOUDY    70  57  64 MISG      29.95F                  
SHENANDOAH *   PTCLDY    70  57  64 SE12      29.95F                  
$$
 
IAZ047>049-059>061-072>074-084-140800-
   CENTRAL IOWA
  
CITY           SKY/WX    TMP DP  RH WIND       PRES   REMARKS
AMES           CLOUDY    64  57  78 E3        30.01F                  
ANKENY *       CLOUDY    66  57  72 CALM      30.03S                  
BOONE *        CLOUDY    64  59  82 E6        30.01S                  
CHARITON *     PTCLDY    63  57  82 E6        30.02S                  
DES MOINES     CLOUDY    70  53  54 SE8       30.01S                  
GRINNELL*      CLOUDY    65  54  67 E5        30.05F                  
KNOXVILLE *    CLOUDY    66  54  63 CALM      30.02S                  
MARSHALLTOWN   CLOUDY    64  58  80 E6        30.03S                  
NEWTON *       CLOUDY    64  55  72 E6        30.02F                  
PELLA *        CLOUDY    65  55  68 SE5       30.04F                  
PERRY *        CLOUDY    65  60  84 SE7       30.00F                  
$$
 
IAZ004>006-015-016-023>025-035-036-140800-
   NORTH CENTRAL IOWA
  
CITY           SKY/WX    TMP DP  RH WIND       PRES   REMARKS
ALGONA *       CLOUDY    66  55  68 E5        30.02S                  
CLARION *      CLOUDY    66  55  68 SE7       30.02S                  
ESTHERVILLE    MOCLDY    60  54  80 SE7       29.99F                  
FORT DODGE *   CLOUDY    66  58  75 SE6       30.01F                  
MASON CITY     MOCLDY    63  59  87 E3        30.05S                  
FOREST CITY *  CLOUDY    63  59  88 S3        30.03F                  
WEBSTER CITY * CLOUDY    64  57  77 SE5       30.00S                  
IOWA FALLS *   MOCLDY    64  57  77 E3        30.04F                  
$$

IAZ007>011-017>019-026>030-037>042-050>054-066-140800-
   NORTHEAST IOWA
  
CITY           SKY/WX    TMP DP  RH WIND       PRES   REMARKS
CEDAR RAPIDS   FAIR      64  58  80 CALM      30.05R                  
CHARLES CITY * MOCLDY    64  55  72 E3        30.06S                  
DECORAH *      MOCLDY    63  57  82 CALM      30.06R                  
DUBUQUE        FAIR      61  57  87 SW5       30.06R                  
MONTICELLO *   FAIR      64  61  88 CALM      30.06R                  
OELWEIN *      CLOUDY    63  59  88 CALM      30.06F                  
WATERLOO       FAIR      64  57  78 E5        30.03F                  
$$
 
IAZ064-065-067-068-078-140800-
   EAST CENTRAL IOWA
  
CITY           SKY/WX    TMP DP  RH WIND       PRES   REMARKS
DAVENPORT      FAIR      63  60  90 SE3       30.07R                  
IOWA CITY      FAIR      67  57  70 CALM      30.06R                  
MT. PLEASANT * PTCLDY    61  54  77 NE3       30.05R                  
MUSCATINE *      N/A    N/A N/A N/A MISG        N/A                   
QUAD CITIES    FAIR      63  58  83 CALM      30.05R                  
$$
 
IAZ062-063-075>077-085>089-095>099-140800-
   SOUTHEAST IOWA
  
CITY           SKY/WX    TMP DP  RH WIND       PRES   REMARKS
BURLINGTON     CLOUDY    68  51  54 SE5       30.03S                  
FAIRFIELD *    CLOUDY    61  54  77 NE5       30.04R                  
FORT MADISON * PTCLDY    66  52  59 SE5       30.03F                  
KEOKUK *       CLEAR     66  52  59 SE6       30.02F                  
OSKALOOSA *    FAIR      63  55  77 E6        30.05R                  
CENTERVILLE *    N/A     59  59 100 CALM      30.05R                  
OTTUMWA        CLOUDY    65  53  65 E7        30.02S                  
WASHINGTON *   CLOUDY    64  61  88 CALM      30.06R                  
$$

ABBREVIATIONS USED IN REMARKS
   TC - TEMPERATURES IN CELSIUS
  WCI - WIND CHILL INDEX
   HX - HEAT INDEX
  VSB - VISIBILITY  
$$

  

539 
ASUS43 KDMX 140701
RWRIA 

WEATHER ROUNDUP FOR IOWA
NATIONAL WEATHER SERVICE DES MOINES IA
200 AM CDT THU JUN 14 2018

NOTE: "FAIR" INDICATES FEW OR NO CLOUDS BELOW 12,000 FEET WITH NO
SIGNIFICANT WEATHER AND/OR OBSTRUCTIONS TO VISIBILITY.

* - THESE STATIONS ARE NOT NWS STATIONS...THUS NOT UNDER NWS
QUALITY CONTROL.  THEY ALSO DO NOT REPORT WEATHER SUCH 
AS PRECIPITATION OR FOG.  

IAZ001>003-012>014-020>022-031>034-043>046-140800-
   NORTHWEST IOWA
  
CITY           SKY/WX    TMP DP  RH WIND       PRES   REMARKS
CARROLL *      CLOUDY    66  59  77 CALM      29.99R                  
CHEROKEE *     MOCLDY    65  56  72 SE6       29.96F                  
DENISON *      CLOUDY    68  55  64 S8        29.98F                  
LE MARS *      CLOUDY   N/A N/A N/A SE9       29.93F                  
ORANGE CITY *  CLOUDY    66  55  68 SE6       29.94F                  
SHELDON *      CLOUDY    64  57  77 SE9       29.94F                  
SIOUX CITY     CLOUDY    67  57  70 SE7       29.93S                  
SPENCER        CLOUDY    64  56  75 E8        29.98F                  
STORM LAKE *   MOCLDY    64  55  72 SE7       29.98F                  
$$
 
IAZ055>058-069>071-079>083-090>094-140800-
   SOUTHWEST IOWA
  
CITY           SKY/WX    TMP DP  RH WIND       PRES   REMARKS
ATLANTIC *     CLOUDY    70  55  60 S3        29.96F                  
AUDUBON *      PTCLDY    66  57  72 CALM      29.99S                  
CLARINDA *     CLOUDY    70  55  60 S8        29.98F                  
COUNCIL BLFS * PTCLDY    70  61  73 SE8G17    29.94F                  
CRESTON *      CLOUDY    66  59  77 SE7       30.01S                  
HARLAN  *      PTCLDY    68  55  64 SE7       30.00R                  
LAMONI         PTCLDY    66  57  72 SE6       30.01R                  
RED OAK *      CLOUDY    70  57  64 MISG      29.95F                  
SHENANDOAH *   PTCLDY    70  57  64 SE12      29.95F                  
$$
 
IAZ047>049-059>061-072>074-084-140800-
   CENTRAL IOWA
  
CITY           SKY/WX    TMP DP  RH WIND       PRES   REMARKS
AMES           CLOUDY    64  57  78 E3        30.01F                  
ANKENY *       CLOUDY    66  57  72 CALM      30.03S                  
BOONE *        CLOUDY    64  59  82 E6        30.01S                  
CHARITON *     PTCLDY    63  57  82 E6        30.02S                  
DES MOINES     CLOUDY    70  53  54 SE8       30.01S                  
GRINNELL*      CLOUDY    65  54  67 E5        30.05F                  
KNOXVILLE *    CLOUDY    66  54  63 CALM      30.02S                  
MARSHALLTOWN   CLOUDY    64  58  80 E6        30.03S                  
NEWTON *       CLOUDY    64  55  72 E6        30.02F                  
PELLA *        CLOUDY    65  55  68 SE5       30.04F                  
$$
 
IAZ004>006-015-016-023>025-035-036-140800-
   NORTH CENTRAL IOWA
  
CITY           SKY/WX    TMP DP  RH WIND       PRES   REMARKS
ALGONA *       CLOUDY    66  55  68 E5        30.02S                  
CLARION *      CLOUDY    66  55  68 SE7       30.02S                  
ESTHERVILLE    MOCLDY    60  54  80 SE7       29.99F                  
FORT DODGE *   CLOUDY    66  58  75 SE6       30.01F                  
MASON CITY     MOCLDY    63  59  87 E3        30.05S                  
FOREST CITY *  CLOUDY    63  59  88 S3        30.03F                  
IOWA FALLS *   MOCLDY    64  57  77 E3        30.04F                  
$$

IAZ007>011-017>019-026>030-037>042-050>054-066-140800-
   NORTHEAST IOWA
  
CITY           SKY/WX    TMP DP  RH WIND       PRES   REMARKS
CEDAR RAPIDS   FAIR      64  58  80 CALM      30.05R                  
CHARLES CITY * MOCLDY    64  55  72 E3        30.06S                  
DECORAH *      MOCLDY    63  57  82 CALM      30.06R                  
DUBUQUE        FAIR      61  57  87 SW5       30.06R                  
MONTICELLO *   FAIR      64  61  88 CALM      30.06R                  
OELWEIN *      CLOUDY    63  59  88 CALM      30.06F                  
WATERLOO       FAIR      64  57  78 E5        30.03F                  
$$
 
IAZ064-065-067-068-078-140800-
   EAST CENTRAL IOWA
  
CITY           SKY/WX    TMP DP  RH WIND       PRES   REMARKS
DAVENPORT      FAIR      63  60  90 SE3       30.07R                  
IOWA CITY      FAIR      67  57  70 CALM      30.06R                  
MUSCATINE *      N/A    N/A N/A N/A MISG        N/A                   
QUAD CITIES    FAIR      63  58  83 CALM      30.05R                  
$$
 
IAZ062-063-075>077-085>089-095>099-140800-
   SOUTHEAST IOWA
  
CITY           SKY/WX    TMP DP  RH WIND       PRES   REMARKS
BURLINGTON     CLOUDY    68  51  54 SE5       30.03S                  
FAIRFIELD *    CLOUDY    61  54  77 NE5       30.04R                  
FORT MADISON * PTCLDY    66  52  59 SE5       30.03F                  
KEOKUK *       CLEAR     66  52  59 SE6       30.02F                  
OSKALOOSA *    FAIR      63  55  77 E6        30.05R                  
CENTERVILLE *    N/A     59  59 100 CALM      30.05R                  
OTTUMWA        CLOUDY    65  53  65 E7        30.02S                  
WASHINGTON *   CLOUDY    64  61  88 CALM      30.06R                  
$$

ABBREVIATIONS USED IN REMARKS
   TC - TEMPERATURES IN CELSIUS
  WCI - WIND CHILL INDEX
   HX - HEAT INDEX
  VSB - VISIBILITY  
$$